Date String (YYYY-MM-DD hh:mm:ss) UTC,Instrument flags,Ambient pressure (hPa),Sample flow (lpm),Bypass flow (lpm),Sample temperature (°C),Ambient temperature (°C),ASC tube jacket temperature (°C),LED temperature (°C),Box temperature (°C),Sample RH (%),Span deviation,Mass concentration (μg/m³),Mass concentration (μg/m³),Mass concentration (μg/m³)
DateTimeUTC,F1_M11,P_M11,Q1_M11,Q2_M11,T1_M11,T2_M11,T3_M11,T4_M11,T5_M11,U1_M11,ZSPAN_M11,X0_M11,X2_M11,X1_M11
2022-06-27 12:00:00,,0834.8,5.01,0.00,29.4,28.3,00.0,38.3,31.2,24.1,0000.0,0009.54,0004.41,0004.06
2022-06-27 12:01:00,,0834.9,4.98,0.00,29.4,28.3,00.0,38.3,31.2,24.2,0000.0,0009.68,0004.48,0004.08
2022-06-27 12:02:00,,0834.9,4.99,0.00,29.4,28.3,00.0,38.3,31.2,24.2,0000.0,0009.64,0004.51,0004.11
2022-06-27 12:03:00,,0834.9,5.01,0.00,29.4,28.3,00.0,38.3,31.2,24.2,0000.0,0009.83,0004.50,0004.12
2022-06-27 12:04:00,,0834.8,5.01,0.00,29.4,28.3,00.0,38.3,31.2,24.2,0000.0,0009.49,0004.53,0004.13
2022-06-27 12:05:00,,0834.8,5.01,0.00,29.4,28.3,00.0,38.3,31.2,24.2,0000.0,0008.01,0004.55,0004.13
2022-06-27 12:06:00,,0834.9,4.99,0.00,29.4,28.3,00.0,38.3,31.2,24.1,0000.0,0007.84,0004.54,0004.14
2022-06-27 12:07:00,,0834.8,5.01,0.00,29.4,28.3,00.0,38.3,31.2,24.1,0000.0,0007.86,0004.56,0004.15
2022-06-27 12:08:00,,0834.9,5.01,0.00,29.4,28.3,00.0,38.3,31.2,23.9,0000.0,0007.93,0004.59,0004.16
2022-06-27 12:09:00,,0834.8,5.01,0.00,29.4,28.3,00.0,38.3,31.2,23.9,0000.0,0007.88,0004.58,0004.17
2022-06-27 12:10:00,,0834.8,5.01,0.00,29.4,28.3,00.0,38.3,31.3,23.9,0000.0,0008.06,0004.60,0004.17
2022-06-27 12:11:00,,0834.8,4.99,0.00,29.4,28.3,00.0,38.3,31.3,23.9,0000.0,0008.64,0004.61,0004.18
2022-06-27 12:12:00,,0834.8,5.01,0.00,29.4,28.3,00.0,38.3,31.3,23.9,0000.0,0008.64,0004.59,0004.16
2022-06-27 12:13:00,,0834.8,5.01,0.00,29.4,28.3,00.0,38.3,31.3,23.9,0000.0,0008.74,0004.61,0004.16
2022-06-27 12:14:00,,0834.8,5.01,0.00,29.4,28.4,00.0,38.3,31.3,23.8,0000.0,0008.50,0004.62,0004.15
2022-06-27 12:15:00,,0834.8,4.99,0.00,29.4,28.4,00.0,38.3,31.3,23.8,0000.0,0008.48,0004.64,0004.15
2022-06-27 12:16:00,,0834.8,5.00,0.00,29.4,28.4,00.0,38.3,31.3,23.8,0000.0,0008.58,0004.66,0004.16
2022-06-27 12:17:00,,0834.8,5.00,0.00,29.4,28.4,00.0,38.3,31.3,23.8,0000.0,0008.79,0004.69,0004.15
2022-06-27 12:18:00,,0834.8,5.01,0.00,29.5,28.4,00.0,38.3,31.3,23.8,0000.0,0009.68,0004.72,0004.15
2022-06-27 12:19:00,,0834.8,4.99,0.00,29.5,28.4,00.0,38.3,31.3,23.7,0000.0,0010.09,0004.70,0004.14
2022-06-27 12:20:00,,0834.8,5.00,0.00,29.5,28.4,00.0,38.3,31.3,23.7,0000.0,0010.63,0004.71,0004.14
2022-06-27 12:21:00,,0834.8,5.01,0.00,29.5,28.4,00.0,38.3,31.3,23.7,0000.0,0010.70,0004.72,0004.15
2022-06-27 12:22:00,,0834.8,4.99,0.00,29.5,28.4,00.0,38.3,31.3,23.7,0000.0,0010.27,0004.71,0004.15
2022-06-27 12:23:00,,0834.8,5.00,0.00,29.5,28.4,00.0,38.3,31.3,23.8,0000.0,0010.28,0004.69,0004.15
2022-06-27 12:24:00,,0834.8,5.00,0.00,29.5,28.4,00.0,38.3,31.3,23.8,0000.0,0010.40,0004.72,0004.15
2022-06-27 12:25:00,,0834.7,5.00,0.00,29.5,28.4,00.0,38.3,31.4,23.8,0000.0,0010.41,0004.75,0004.15
2022-06-27 12:26:00,,0834.8,5.00,0.00,29.5,28.5,00.0,38.3,31.4,23.8,0000.0,0010.42,0004.75,0004.15
2022-06-27 12:27:00,,0834.8,5.00,0.00,29.5,28.5,00.0,38.3,31.4,23.8,0000.0,0010.37,0004.73,0004.15
2022-06-27 12:28:00,,0834.8,5.00,0.00,29.5,28.5,00.0,38.3,31.4,23.8,0000.0,0010.34,0004.74,0004.15
2022-06-27 12:29:00,,0834.7,4.99,0.00,29.5,28.5,00.0,38.3,31.4,23.8,0000.0,0010.01,0004.77,0004.16
2022-06-27 12:30:00,,0834.8,5.01,0.00,29.5,28.5,00.0,38.3,31.4,23.9,0000.0,0010.47,0004.80,0004.17
2022-06-27 12:31:00,,0834.7,5.00,0.00,29.5,28.5,00.0,38.4,31.4,23.8,0000.0,0010.69,0004.80,0004.16
2022-06-27 12:32:00,,0834.7,5.00,0.00,29.5,28.5,00.0,38.4,31.4,23.9,0000.0,0010.74,0004.83,0004.17
2022-06-27 12:33:00,,0834.7,4.99,0.00,29.5,28.5,00.0,38.4,31.4,23.8,0000.0,0010.64,0004.85,0004.18
2022-06-27 12:34:00,,0834.7,5.00,0.00,29.5,28.5,00.0,38.4,31.4,23.8,0000.0,0011.07,0004.87,0004.19
2022-06-27 12:35:00,,0834.7,5.01,0.00,29.6,28.5,00.0,38.4,31.4,23.8,0000.0,0011.25,0004.84,0004.18
2022-06-27 12:36:00,,0834.6,5.00,0.00,29.6,28.5,00.0,38.4,31.4,23.8,0000.0,0011.74,0004.80,0004.16
2022-06-27 12:37:00,,0834.7,4.99,0.00,29.6,28.5,00.0,38.4,31.4,23.8,0000.0,0012.03,0004.79,0004.16
2022-06-27 12:38:00,,0834.7,5.00,0.00,29.6,28.5,00.0,38.4,31.4,23.8,0000.0,0012.12,0004.78,0004.13
2022-06-27 12:39:00,,0834.8,5.01,0.00,29.6,28.5,00.0,38.4,31.4,23.9,0000.0,0012.13,0004.75,0004.11
2022-06-27 12:40:00,,0834.8,5.00,0.00,29.6,28.5,00.0,38.4,31.4,24.0,0000.0,0011.73,0004.68,0004.09
2022-06-27 12:41:00,,0834.8,4.99,0.00,29.6,28.5,00.0,38.4,31.4,23.9,0000.0,0011.30,0004.64,0004.07
2022-06-27 12:42:00,,0834.8,5.01,0.00,29.6,28.5,00.0,38.4,31.4,24.0,0000.0,0011.06,0004.61,0004.05
2022-06-27 12:43:00,,0834.8,5.00,0.00,29.6,28.6,00.0,38.4,31.5,24.1,0000.0,0011.08,0004.59,0004.03
2022-06-27 12:44:00,,0834.8,4.99,0.00,29.6,28.6,00.0,38.4,31.4,24.0,0000.0,0011.06,0004.57,0004.00
2022-06-27 12:45:00,,0834.8,4.99,0.00,29.6,28.6,00.0,38.4,31.5,24.0,0000.0,0010.48,0004.53,0003.98
2022-06-27 12:46:00,,0834.8,5.01,0.00,29.6,28.6,00.0,38.4,31.5,24.2,0000.0,0010.13,0004.54,0003.99
2022-06-27 12:47:00,,0834.8,5.00,0.00,29.6,28.6,00.0,38.4,31.5,24.4,0000.0,0009.57,0004.53,0004.00
2022-06-27 12:48:00,,0834.8,5.00,0.00,29.6,28.6,00.0,38.4,31.5,24.4,0000.0,0009.25,0004.54,0004.00
2022-06-27 12:49:00,,0834.8,5.00,0.00,29.6,28.6,00.0,38.4,31.5,24.4,0000.0,0009.15,0004.53,0004.01
2022-06-27 12:50:00,,0834.7,4.99,0.00,29.6,28.6,00.0,38.4,31.5,24.3,0000.0,0008.97,0004.55,0004.03
2022-06-27 12:51:00,,0834.7,5.01,0.00,29.6,28.6,00.0,38.5,31.5,24.2,0000.0,0009.30,0004.57,0004.05
2022-06-27 12:52:00,,0834.7,5.00,0.00,29.6,28.6,00.0,38.5,31.5,24.2,0000.0,0008.96,0004.58,0004.06
2022-06-27 12:53:00,,0834.7,5.00,0.00,29.6,28.6,00.0,38.5,31.5,24.3,0000.0,0008.56,0004.61,0004.07
2022-06-27 12:54:00,,0834.7,5.00,0.00,29.7,28.6,00.0,38.5,31.5,24.2,0000.0,0008.48,0004.64,0004.10
2022-06-27 12:55:00,,0834.7,5.00,0.00,29.7,28.6,00.0,38.5,31.5,23.9,0000.0,0008.40,0004.65,0004.12
2022-06-27 12:56:00,,0834.7,5.00,0.00,29.7,28.6,00.0,38.5,31.5,23.9,0000.0,0008.50,0004.65,0004.13
2022-06-27 12:57:00,,0834.7,5.01,0.00,29.7,28.6,00.0,38.5,31.5,24.2,0000.0,0008.76,0004.69,0004.14
2022-06-27 12:58:00,,0834.7,5.01,0.00,29.7,28.6,00.0,38.5,31.5,23.8,0000.0,0008.85,0004.72,0004.14
2022-06-27 12:59:00,,0834.8,4.99,0.00,29.7,28.7,00.0,38.5,31.5,23.7,0000.0,0008.91,0004.74,0004.15
